www.pogodaiklimat.ru
ПОГОДА в Хое
Время
(UTC), дата
06 12.10
09 12.10
12 12.10
15 12.10
18 12.10
21 12.10
00 13.10
03 13.10
06 13.10
09 13.10
12 13.10
15 13.10
18 13.10
21 13.10
00 14.10
03 14.10
06 14.10
09 14.10
12 14.10
15 14.10
18 14.10
21 14.10
00 15.10
03 15.10
06 15.10
09 15.10
12 15.10
15 15.10
18 15.10
21 15.10
00 16.10
03 16.10
06 16.10
09 16.10
12 16.10
15 16.10
18 16.10
21 16.10
00 17.10
03 17.10
06 17.10
09 17.10
12 17.10
15 17.10
18 17.10
21 17.10
00 18.10
03 18.10
06 18.10
09 18.10
12 18.10
15 18.10
18 18.10
21 18.10
00 19.10
03 19.10
Ветер
(напр.,м/с)
Видим. Явления Облачность Т
(С)
Тd
(С)
f
(%)
Тe
(С)
Тes
(С)
Комфортность P
(гПа)
Po
(гПа)
Тmin
(С)
Tmax
(С)
R
(мм)
R24
(мм)
S
(см)
В 3 10 км 8/4 1200 м
[Sc Ac As]
+19.2 +5.8 41 +20 +21 тепло 1014.4 893.3
В 6 10 км 8/3 1200 м
[Sc Cs]
+22.8 +3.7 29 +23 +25 комфорт 1014.4 893.5 666
СВ 10 10 км 9/6 1050 м
[Cb calv Ac As]
+21.8 +4.9 33 +22 +22 комфорт 1014.4 893.2
В 6 10 км 9/9 1050 м
[Cb calv]
+19.2 +4.6 38 +19 +19 тепло 1017.2 894.6 +24.0
СВ 8 10 км 9/8 1050 м
[Cb calv Cs]
+19.0 +4.0 37 +19 +19 тепло 1017.9 896.6
штиль 0 10 км {ливн. осадки} 9/5 1200 м
[Sc Cs]
+14.2 +8.6 69 +14 +14 тепло 1019.4 897.9
штиль 0 10 км {ливн. осадки} 6/4 1200 м
[Sc Cs]
+11.6 +5.3 65 +11 +11 тепло 1021.6 898.9 0.3
штиль 0 12 км ясно +9.8 +2.6 61 +9 +9 тепло 1024.9 900.9 +9.4 666
В 3 10 км ясно +15.6 +1.9 40 +15 +19 тепло 1025.7 902.7
штиль 0 10 км ясно +20.4 +2.5 31 +21 +34 комфорт 1025.2 902.3 666
СЗ 3 10 км ясно +22.4 +3.5 29 +22 +26 комфорт 1023.7 900.9
штиль 0 10 км ясно +18.6 +1.9 33 +19 +19 тепло 1024.9 900.8 +22.4 666
штиль 0 10 км ясно +11.8 +3.7 58 +12 +12 тепло 1026.3 901.9
штиль 0 10 км ясно +8.6 +2.8 67 +8 +8 тепло 1026.4 902.2
штиль 0 10 км ясно +6.4 +2.8 78 +6 +6 тепло 1026.4 902.2
штиль 0 10 км ясно +5.2 +1.4 76 +4 +4 по сезону 1027.6 902.3 +5.2 666
ЮВ 1 10 км ясно +15.4 +2.9 43 +16 +21 тепло 1028.5 903.7
СВ 1 10 км ясно +21.2 +3.4 31 +21 +33 комфорт 1026.5 902.6
Ю 2 10 км ясно +24.3 +0.6 21 +23 +27 комфорт 1024.2 900.6
штиль 0 12 км ясно +19.6 -0.1 27 +20 +20 тепло 1024.2 899.4 +24.8
штиль 0 10 км ясно +11.8 +2.8 54 +12 +12 тепло 1024.4 900.1
Ю 2 10 км ясно +8.4 +1.5 62 +7 +7 тепло 1023.8 900.1
ЮВ 2 10 км ясно +6.2 +1.1 70 +4 +4 по сезону 1023.2 899.7
Ю 2 12 км ясно +5.6 -1.1 62 +4 +4 по сезону 1024.7 899.9 +5.0 666
штиль 0 12 км ясно +16.6 +0.3 33 +17 +22 тепло 1024.6 900.5
ЮВ 2 12 км ясно +21.8 +1.5 26 +21 +31 комфорт 1022.9 899.4 666
штиль 0 12 км ясно +25.6 +1.0 20 +24 +30 комфорт 1019.0 896.3
штиль 0 10 км ясно +20.6 +2.0 29 +21 +21 комфорт 1019.6 895.7 +25.6
штиль 0 10 км ясно +12.8 +4.3 56 +13 +13 тепло 1019.8 896.5
штиль 0 10 км ясно +9.6 +2.2 60 +9 +9 тепло 1019.7 896.8
Ю 2 10 км ясно +6.3 +2.0 74 +4 +4 по сезону 1019.6 896.8
штиль 0 12 км ясно +5.6 +1.0 72 +5 +5 тепло 1021.1 897.0 +5.6 666
штиль 0 10 км ясно +16.6 +2.9 40 +17 +22 тепло 1021.4 897.9
В 2 12 км ясно +22.8 +1.8 25 +22 +32 комфорт 1019.8 897.1
штиль 0 10 км ясно +25.8 +0.8 19 +24 +30 комфорт 1017.7 895.2
СЗ 2 10 км ясно +20.4 +0.3 26 +21 +21 комфорт 1018.4 894.6 +26.0
Ю 2 10 км ясно +13.4 +0.8 42 +13 +13 тепло 1018.5 895.5
штиль 0 10 км ясно +9.2 +0.4 54 +9 +9 тепло 1018.8 896.1
ЮВ 2 10 км ясно +6.8 +0.5 64 +5 +5 тепло 1019.0 896.5
штиль 0 12 км ясно +6.4 -0.6 61 +6 +6 тепло 1021.2 897.2 +5.8
штиль 0 12 км ясно +17.6 -0.6 29 +18 +23 тепло 1021.1 897.9
В 2 12 км ясно +23.1 -1.1 20 +22 +31 комфорт 1019.9 897.1
В 2 12 км 5/0
[Ci sp]
+26.2 -1.6 16 +24 +28 комфорт 1017.5 895.1
штиль 0 10 км ясно +22.8 -0.3 22 +22 +22 комфорт 1018.7 895.5 +26.4 666
штиль 0 10 км ясно +14.2 +1.6 42 +14 +14 тепло 1018.1 895.5
штиль 0 10 км ясно +10.4 +1.4 54 +10 +10 тепло 1017.7 895.5
штиль 0 10 км ясно +8.6 +1.2 60 +8 +8 тепло 1017.4 895.5
штиль 0 10 км ясно +7.6 +1.1 63 +7 +7 тепло 1018.4 895.5 +7.2 666
штиль 0 10 км 4/0
[Ci fib]
+18.4 +0.1 29 +18 +23 тепло 1018.6 896.1
штиль 0 12 км ясно +23.6 +1.9 24 +23 +35 комфорт 1016.6 894.6
В 5 12 км 5/5 1050 м
[Cb calv]
+24.9 +1.1 21 +24 +25 комфорт 1015.1 893.2
штиль 0 10 км 3/3 1200 м
[Sc]
+20.0 +2.5 31 +20 +20 тепло 1016.7 893.5 +25.0 666
штиль 0 10 км ясно +13.8 +4.4 53 +14 +14 тепло 1016.2 894.0
штиль 0 10 км ясно +8.6 +4.3 57 +12 +12 тепло 1015.4 1080.5
штиль 0 10 км ясно +11.2 +5.0 66 +11 +11 тепло 1015.3 894.0
штиль 0 10 км ясно +9.6 +4.0 68 +9 +9 тепло 1017.0 894.1 +9.4
Местоположение метеостанции Хой (Иран): широта 38.55 долгота 44.97 высота над уровнем моря 1103 м.
В архиве по умолчанию представлена погода в Хое за последнюю неделю. Архивные данные за месяц целиком и за предыдущие месяцы, начиная с января 2011 года, Вы можете получить, выбрав интересующий диапазон дат из раскрывающегося списка и нажав кнопку "Найти!".
*Определитесь, кто Вы:
Внимание! Время в таблицах - всемирное. Для получения местного времени необходимо прибавить поправку, которая равна 3.5 ч.
Смотрите также архив погоды в соседних городах и на ближайших метеорологических станциях:
Партнеры нашего сайта:      
Пояснения к столбцам:
  • Ветер - указаны скорость ветра в м/с - средняя за 10 мин, порывы в срок и между сроками (в фигурных скобках) и направление, откуда дует ветер: С - северный,
  • СВ - северо-восточный, В - восточный, ЮВ - юго-восточный, Ю - южный, ЮЗ - юго-западный, З - западный, СЗ - северо-западный.
  • Видимость - горизонтальная дальность видимости в метрах или километрах. При видимости от 1 до 10 км при отсутствии осадков обычно наблюдается дымка, при ухудшении видимости до 1 км и менее - туман. В сухую погоду видимость может ухудшаться дымом, пылью или мглою.
  • Явления - указаны атмосферные явления, наблюдавшиеся в срок или в последний час перед сроком; фигурными скобками обозначены явления, наблюдавшиеся между сроками (за 1-3 часа до срока); квадратными скобками обозначены град или гололедные отложения с указанием их диаметра в мм.
  • Облачность - указаны через наклонную черту общая и нижняя облачность в баллах и высота нижней границы облаков в метрах; квадратными скобками обозначены формы облаков: Ci - перистые, Cs - перисто-слоистые, Cc - перисто-кучевые, Ac - высококучевые, As - высокослоистые, Sc - слоисто-кучевые, Ns - слоисто-дождевые, Cu - кучевые, Cb - кучево-дождевые. Подробнее классификацию облаков см. в Атласе облаков (PDF).
  • T - Температура воздуха - температура, измеренная на высоте 2 м над землей.
  • Td - Температура точки росы - температура, при понижении до которой содержащийся в воздухе водяной пар достигнет насыщения.
  • f - Относительная влажность воздуха - влажноcть воздуха, измеренная на высоте 2 м над землей.
  • Te - Эффективная температура - температура, которую ощущает одетый по сезону человек в тени. Характеристика душности погоды. При расчете учитывается влияние влажности воздуха и скорости ветра на теплоощущения человека.
  • Tes - Эффективная температура на солнце - температура, которую ощущает человек, с поправкой на солнечный нагрев. Характеристика знойности погоды. Зависит от высоты солнца над горизонтом, облачности и скорости ветра. Ночью, в пасмурную погоду, а также при ветре 12 м/с и более поправка равна нулю.
  • P - Атмосферное давление - приведенное к уровню моря атмосферное давление.
  • Po - Атмосферное давление - измеренное на уровне метеостанции атмосферное давление.
  • Tmin - Минимальная температура - минимум температуры воздуха на высоте 2 м над землей.
  • Tmax - Максимальная температура - максимум температуры воздуха на высоте 2 м над землей.
  • R - Количество осадков - Количество выпавших осадков за период времени, мм. При наведении курсора мыши на число - период времени, за который выпало указанное количество осадков.
  • R24 - Количество осадков - Количество выпавших осадков за 24 часа, мм.
  • S - Снежный покров - Высота снежного покрова, см. При наведении курсора мыши на число - состояние снежного покрова и степень покрытия местности в баллах.